Nassau, Bahamas

9:36 AM EDT on May 27, 2017 (GMT -0400)
Nassau International

Weather History for MYNN - May, 2013

Change the Weather History Date:

Monday, May 27, 2013

  Actual Average Record
Temperature  
Mean Temperature 80 °F -  
Max Temperature 84 °F 87 °F 93 °F (2006)
Min Temperature 75 °F 73 °F 35 °F (2004)
Cooling Degree Days 14    
Growing Degree Days 30 (Base 50)    
Moisture  
Dew Point 72 °F    
Average Humidity 79    
Maximum Humidity 89    
Minimum Humidity 61    
Precipitation  
Precipitation 0.16 in 0.29 in - ()
Sea Level Pressure  
Sea Level Pressure 30.10 in    
Wind  
Wind Speed 9 mph ()    
Max Wind Speed 14 mph    
Max Gust Speed 26 mph    
Visibility 6.4 miles    
Events Rain    
Averages and records for this station are not official NWS values.
T = Trace of Precipitation, MM = Missing Value Source: Averaged Metar Reports

Daily Weather History Graph

Daily Weather History Graph

Search for Another Location

Airport or City:

Trip Planner

Search our weather history database for the weather conditions in past years. The results will help you decide how hot, cold, wet, or windy it might be!

Date:

Astronomy

May. 27, 2013 Rise Set
Actual Time 6:20 AM EDT 7:53 PM EDT
Civil Twilight 5:55 AM EDT 8:18 PM EDT
Nautical Twilight 5:25 AM EDT 8:49 PM EDT
Astronomical Twilight 4:53 AM EDT 9:20 PM EDT
Moon 10:37 PM EDT 8:51 AM EDT
Length of Visible Light 14h 23m
Length of Day
13h 32m
Waning Gibbous, 91% of the Moon is Illuminated
May 27
Waning Gibbous
May 31
Last Quarter
Jun 8
New
Jun 16
First Quarter
Jun 23
Full

Hourly Weather History & Observations

Time (EDT) Temp. Heat Index Dew Point Humidity Pressure Visibility Wind Dir Wind Speed Gust Speed Precip Events Conditions
12:00 AM 77.0 °F - 71.6 °F 83% 30.15 in 6.2 mi East 11.5 mph - N/A   Scattered Clouds
2:00 AM 77.0 °F - 73.4 °F 89% 30.13 in 6.2 mi East 11.5 mph - N/A   Scattered Clouds
3:00 AM 77.0 °F - 71.6 °F 83% 30.10 in 6.2 mi East 9.2 mph - N/A   Scattered Clouds
4:00 AM 77.0 °F - 71.6 °F 83% 30.09 in 6.2 mi East 6.9 mph - N/A   Scattered Clouds
6:00 AM 77.0 °F - 71.6 °F 83% 30.09 in 6.2 mi East 6.9 mph - N/A   Scattered Clouds
7:00 AM 77.0 °F - 71.6 °F 83% 30.11 in 6.2 mi East 4.6 mph - N/A   Scattered Clouds
8:00 AM 80 °F - 73 °F 75% 30.11 in 8 mi East 10.4 mph - -   Scattered Clouds
8:00 AM 80.6 °F 85.4 °F 73.4 °F 79% 30.10 in 6.2 mi East 10.4 mph - N/A   Partly Cloudy
9:00 AM 80.6 °F 84.6 °F 71.6 °F 74% 30.11 in 6.2 mi East 13.8 mph - N/A   Partly Cloudy
11:00 AM 82.4 °F 88.2 °F 73.4 °F 74% 30.11 in 6.2 mi East 12.7 mph - N/A   Mostly Cloudy
12:00 PM 82.4 °F 87.2 °F 71.6 °F 70% 30.11 in 6.2 mi East 12.7 mph - N/A   Mostly Cloudy
1:00 PM 82.4 °F 87.2 °F 71.6 °F 70% 30.11 in 6.2 mi East 13.8 mph - N/A   Mostly Cloudy
2:00 PM 85 °F - 74 °F 61% 30.11 in 8 mi East 2.3 mph - -   Mostly Cloudy
2:00 PM 84.2 °F 90.9 °F 73.4 °F 70% 30.11 in 6.2 mi East 13.8 mph - N/A   Mostly Cloudy
3:00 PM 80.6 °F 85.4 °F 73.4 °F 79% 30.09 in 6.2 mi ESE 11.5 mph - N/A   Mostly Cloudy
4:00 PM 82.4 °F 87.2 °F 71.6 °F 70% 30.08 in 6.2 mi ESE 12.7 mph 24.2 mph N/A   Mostly Cloudy
5:00 PM 80.6 °F 85.4 °F 73.4 °F 79% 30.08 in 6.2 mi SE 13.8 mph 26.5 mph N/A Rain Light Rain Showers
6:00 PM 77.0 °F - 71.6 °F 83% 30.06 in 6.2 mi East 6.9 mph - N/A   Mostly Cloudy
7:00 PM 77.0 °F - 71.6 °F 83% 30.07 in 6.2 mi East 4.6 mph - N/A   Mostly Cloudy
8:00 PM 77 °F - 74 °F 86% 30.07 in 8 mi East 5.8 mph - -   Partly Cloudy
8:00 PM 77.0 °F - 73.4 °F 89% 30.07 in 6.2 mi East 5.8 mph - N/A   Mostly Cloudy
9:00 PM 77.0 °F - 69.8 °F 78% 30.09 in 6.2 mi East 4.6 mph - N/A   Mostly Cloudy
10:00 PM 77.0 °F - 71.6 °F 83% 30.09 in 6.2 mi ENE 6.9 mph - N/A Rain Light Rain Showers
11:00 PM 78.8 °F - 75.2 °F 89% 30.10 in 6.2 mi East 11.5 mph - N/A   Mostly Cloudy